Time,TemperatureF,DewpointF,PressureIn,WindDirection,WindDirectionDegrees,WindSpeedMPH,WindSpeedGustMPH,Humidity,HourlyPrecipIn,Conditions,Clouds,dailyrainin,SoftwareType,DateUTC
2013-03-21 00:00:00,17.9,16.2,29.66,WNW,292,0.0,2.0,93,0.00,,,0.00,Weather View 32 v70,2013-03-21 04:00:00,
2013-03-21 00:05:00,17.9,16.2,29.66,SSE,157,0.0,2.0,93,0.00,,,0.00,Weather View 32 v70,2013-03-21 04:05:00,
2013-03-21 00:10:00,17.5,15.8,29.66,SSE,157,0.0,2.0,93,0.00,,,0.00,Weather View 32 v70,2013-03-21 04:10:00,
2013-03-21 00:15:00,17.2,15.5,29.66,WSW,247,0.0,2.0,93,0.00,,,0.00,Weather View 32 v70,2013-03-21 04:15:00,
2013-03-21 00:20:00,17.1,15.4,29.66,NNE,22,0.0,2.0,93,0.00,,,0.00,Weather View 32 v70,2013-03-21 04:20:00,
2013-03-21 00:25:00,17.1,15.4,29.66,South,180,2.0,2.0,93,0.00,,,0.00,Weather View 32 v70,2013-03-21 04:25:00,
2013-03-21 00:30:00,17.5,15.8,29.66,NNW,337,0.0,3.0,93,0.00,,,0.00,Weather View 32 v70,2013-03-21 04:30:00,
2013-03-21 00:35:00,17.6,15.9,29.66,WNW,292,0.0,3.0,93,0.00,,,0.00,Weather View 32 v70,2013-03-21 04:35:00,
2013-03-21 00:40:00,17.6,15.9,29.66,WNW,292,1.0,3.0,93,0.00,,,0.00,Weather View 32 v70,2013-03-21 04:40:00,
2013-03-21 00:45:00,17.5,15.8,29.66,SSE,157,0.0,3.0,93,0.00,,,0.00,Weather View 32 v70,2013-03-21 04:45:00,
2013-03-21 00:50:00,17.7,16.0,29.66,SSE,157,0.0,3.0,93,0.00,,,0.00,Weather View 32 v70,2013-03-21 04:50:00,
2013-03-21 00:55:00,17.4,15.7,29.66,SSE,157,1.0,3.0,93,0.00,,,0.00,Weather View 32 v70,2013-03-21 04:55:00,
2013-03-21 01:00:00,17.2,15.5,29.66,SSE,157,0.0,3.0,93,0.00,,,0.00,Weather View 32 v70,2013-03-21 05:00:00,
2013-03-21 01:05:00,17.1,15.4,29.66,SSE,157,1.0,3.0,93,0.00,,,0.00,Weather View 32 v70,2013-03-21 05:05:00,
2013-03-21 01:10:00,16.9,15.2,29.66,SSE,157,2.0,3.0,93,0.00,,,0.00,Weather View 32 v70,2013-03-21 05:10:00,
2013-03-21 01:15:00,16.7,15.0,29.66,SSW,202,0.0,3.0,93,0.00,,,0.00,Weather View 32 v70,2013-03-21 05:15:00,
2013-03-21 01:20:00,16.6,14.9,29.66,SSE,157,1.0,3.0,93,0.00,,,0.00,Weather View 32 v70,2013-03-21 05:20:00,
2013-03-21 01:25:00,16.5,14.8,29.66,South,180,0.0,3.0,93,0.00,,,0.00,Weather View 32 v70,2013-03-21 05:25:00,
2013-03-21 01:30:00,16.3,14.6,29.67,South,180,0.0,3.0,93,0.00,,,0.00,Weather View 32 v70,2013-03-21 05:30:00,
2013-03-21 01:35:00,16.2,14.5,29.66,South,180,1.0,2.0,93,0.00,,,0.00,Weather View 32 v70,2013-03-21 05:35:00,
2013-03-21 01:40:00,16.5,14.8,29.65,South,180,1.0,2.0,93,0.00,,,0.00,Weather View 32 v70,2013-03-21 05:40:00,
2013-03-21 01:45:00,16.2,14.5,29.66,South,180,1.0,2.0,93,0.00,,,0.00,Weather View 32 v70,2013-03-21 05:45:00,
2013-03-21 01:50:00,16.1,14.4,29.66,South,180,1.0,2.0,93,0.00,,,0.00,Weather View 32 v70,2013-03-21 05:50:00,
2013-03-21 01:55:00,15.9,14.2,29.66,South,180,2.0,2.0,93,0.00,,,0.00,Weather View 32 v70,2013-03-21 05:55:00,
2013-03-21 02:00:00,15.9,14.2,29.66,South,180,2.0,3.0,93,0.00,,,0.00,Weather View 32 v70,2013-03-21 06:00:00,
2013-03-21 02:05:00,15.9,14.2,29.67,SSE,157,2.0,3.0,93,0.00,,,0.00,Weather View 32 v70,2013-03-21 06:05:00,
2013-03-21 02:10:00,15.9,14.2,29.67,SSE,157,1.0,3.0,93,0.00,,,0.00,Weather View 32 v70,2013-03-21 06:10:00,
2013-03-21 02:15:00,15.9,14.2,29.67,SE,135,1.0,3.0,93,0.00,,,0.00,Weather View 32 v70,2013-03-21 06:15:00,
2013-03-21 02:20:00,15.9,14.2,29.67,SSE,157,0.0,3.0,93,0.00,,,0.00,Weather View 32 v70,2013-03-21 06:20:00,
2013-03-21 02:25:00,15.8,14.1,29.67,SSE,157,2.0,3.0,93,0.00,,,0.00,Weather View 32 v70,2013-03-21 06:25:00,
2013-03-21 02:30:00,15.9,14.2,29.67,SSE,157,2.0,3.0,93,0.00,,,0.00,Weather View 32 v70,2013-03-21 06:30:00,
2013-03-21 02:35:00,15.8,14.1,29.66,SSE,157,2.0,3.0,93,0.00,,,0.00,Weather View 32 v70,2013-03-21 06:35:00,
2013-03-21 02:40:00,15.6,13.9,29.66,SSE,157,1.0,3.0,93,0.00,,,0.00,Weather View 32 v70,2013-03-21 06:40:00,
2013-03-21 02:45:00,15.8,14.1,29.66,South,180,0.0,3.0,93,0.00,,,0.00,Weather View 32 v70,2013-03-21 06:45:00,
2013-03-21 02:50:00,15.6,13.9,29.66,South,180,1.0,3.0,93,0.00,,,0.00,Weather View 32 v70,2013-03-21 06:50:00,
2013-03-21 02:55:00,15.4,13.7,29.66,South,180,2.0,3.0,93,0.00,,,0.00,Weather View 32 v70,2013-03-21 06:55:00,
2013-03-21 03:00:00,15.5,13.8,29.66,South,180,1.0,3.0,93,0.00,,,0.00,Weather View 32 v70,2013-03-21 07:00:00,
2013-03-21 03:05:00,15.3,13.6,29.66,South,180,2.0,3.0,93,0.00,,,0.00,Weather View 32 v70,2013-03-21 07:05:00,
2013-03-21 03:10:00,15.4,13.7,29.66,South,180,1.0,3.0,93,0.00,,,0.00,Weather View 32 v70,2013-03-21 07:10:00,
2013-03-21 03:15:00,15.2,13.5,29.66,South,180,0.0,3.0,93,0.00,,,0.00,Weather View 32 v70,2013-03-21 07:15:00,
2013-03-21 03:20:00,15.1,13.4,29.66,South,180,0.0,3.0,93,0.00,,,0.00,Weather View 32 v70,2013-03-21 07:20:00,
2013-03-21 03:25:00,15.2,13.5,29.66,South,180,2.0,3.0,93,0.00,,,0.00,Weather View 32 v70,2013-03-21 07:25:00,
2013-03-21 03:31:00,14.8,13.1,29.66,South,180,1.0,3.0,93,0.00,,,0.00,Weather View 32 v70,2013-03-21 07:31:00,
2013-03-21 03:36:00,14.7,13.0,29.66,South,180,1.0,3.0,93,0.00,,,0.00,Weather View 32 v70,2013-03-21 07:36:00,
2013-03-21 03:41:00,14.7,13.0,29.65,South,180,2.0,3.0,93,0.00,,,0.00,Weather View 32 v70,2013-03-21 07:41:00,
2013-03-21 03:46:00,14.7,13.0,29.66,South,180,1.0,2.0,93,0.00,,,0.00,Weather View 32 v70,2013-03-21 07:46:00,
2013-03-21 03:51:00,14.3,12.6,29.65,South,180,1.0,2.0,93,0.00,,,0.00,Weather View 32 v70,2013-03-21 07:51:00,
2013-03-21 03:56:00,14.1,12.5,29.65,South,180,1.0,2.0,93,0.00,,,0.00,Weather View 32 v70,2013-03-21 07:56:00,
2013-03-21 04:01:00,13.9,12.3,29.65,South,180,2.0,2.0,93,0.00,,,0.00,Weather View 32 v70,2013-03-21 08:01:00,
2013-03-21 04:06:00,13.7,12.1,29.65,South,180,1.0,2.0,93,0.00,,,0.00,Weather View 32 v70,2013-03-21 08:06:00,
2013-03-21 04:11:00,13.8,12.2,29.65,South,180,1.0,2.0,93,0.00,,,0.00,Weather View 32 v70,2013-03-21 08:11:00,
2013-03-21 04:16:00,13.6,12.0,29.65,South,180,1.0,2.0,93,0.00,,,0.00,Weather View 32 v70,2013-03-21 08:16:00,
2013-03-21 04:21:00,13.5,11.9,29.64,South,180,0.0,2.0,93,0.00,,,0.00,Weather View 32 v70,2013-03-21 08:21:00,
2013-03-21 04:26:00,13.3,11.7,29.64,South,180,0.0,2.0,93,0.00,,,0.00,Weather View 32 v70,2013-03-21 08:26:00,
2013-03-21 04:31:00,12.8,11.2,29.63,South,180,0.0,2.0,93,0.00,,,0.00,Weather View 32 v70,2013-03-21 08:31:00,
2013-03-21 04:36:00,11.4,9.8,29.63,South,180,2.0,2.0,93,0.00,,,0.00,Weather View 32 v70,2013-03-21 08:36:00,
2013-03-21 04:41:00,11.5,9.9,29.63,SSE,157,2.0,2.0,93,0.00,,,0.00,Weather View 32 v70,2013-03-21 08:41:00,
2013-03-21 04:46:00,12.6,11.0,29.63,SSE,157,2.0,2.0,93,0.00,,,0.00,Weather View 32 v70,2013-03-21 08:46:00,
2013-03-21 04:51:00,13.1,11.5,29.64,SSE,157,1.0,2.0,93,0.00,,,0.00,Weather View 32 v70,2013-03-21 08:51:00,
2013-03-21 04:56:00,13.4,11.8,29.63,SSE,157,1.0,2.0,93,0.00,,,0.00,Weather View 32 v70,2013-03-21 08:56:00,
2013-03-21 05:01:00,12.9,11.3,29.64,SSE,157,2.0,2.0,93,0.00,,,0.00,Weather View 32 v70,2013-03-21 09:01:00,
2013-03-21 05:06:00,12.9,11.3,29.63,SE,135,2.0,2.0,93,0.00,,,0.00,Weather View 32 v70,2013-03-21 09:06:00,
2013-03-21 05:11:00,12.9,11.3,29.63,SE,135,0.0,2.0,93,0.00,,,0.00,Weather View 32 v70,2013-03-21 09:11:00,
2013-03-21 05:16:00,13.1,11.5,29.63,SE,135,1.0,2.0,93,0.00,,,0.00,Weather View 32 v70,2013-03-21 09:16:00,
2013-03-21 05:21:00,13.1,11.5,29.63,SE,135,0.0,2.0,93,0.00,,,0.00,Weather View 32 v70,2013-03-21 09:21:00,
2013-03-21 05:26:00,13.1,11.5,29.63,SE,135,1.0,2.0,93,0.00,,,0.00,Weather View 32 v70,2013-03-21 09:26:00,
2013-03-21 05:31:00,12.8,11.2,29.63,SE,135,1.0,2.0,93,0.00,,,0.00,Weather View 32 v70,2013-03-21 09:31:00,
2013-03-21 05:36:00,13.1,11.5,29.63,NNW,337,0.0,2.0,93,0.00,,,0.00,Weather View 32 v70,2013-03-21 09:36:00,
2013-03-21 05:41:00,13.1,11.5,29.63,South,180,2.0,2.0,93,0.00,,,0.00,Weather View 32 v70,2013-03-21 09:41:00,
2013-03-21 05:46:00,13.1,11.5,29.63,South,180,1.0,2.0,93,0.00,,,0.00,Weather View 32 v70,2013-03-21 09:46:00,
2013-03-21 05:51:00,13.1,11.5,29.63,WSW,247,0.0,2.0,93,0.00,,,0.00,Weather View 32 v70,2013-03-21 09:51:00,
2013-03-21 05:56:00,13.2,11.6,29.63,South,180,2.0,2.0,93,0.00,,,0.00,Weather View 32 v70,2013-03-21 09:56:00,
2013-03-21 06:01:00,13.2,11.6,29.63,SSE,157,2.0,2.0,93,0.00,,,0.00,Weather View 32 v70,2013-03-21 10:01:00,
2013-03-21 06:06:00,13.1,11.5,29.63,SSE,157,2.0,2.0,93,0.00,,,0.00,Weather View 32 v70,2013-03-21 10:06:00,
2013-03-21 06:11:00,13.2,11.6,29.63,SSE,157,0.0,2.0,93,0.00,,,0.00,Weather View 32 v70,2013-03-21 10:11:00,
2013-03-21 06:16:00,13.2,11.6,29.63,WSW,247,2.0,2.0,93,0.00,,,0.00,Weather View 32 v70,2013-03-21 10:16:00,
2013-03-21 06:21:00,13.1,11.5,29.63,SSW,202,1.0,2.0,93,0.00,,,0.00,Weather View 32 v70,2013-03-21 10:21:00,
2013-03-21 06:26:00,13.1,11.5,29.63,SE,135,0.0,2.0,93,0.00,,,0.00,Weather View 32 v70,2013-03-21 10:26:00,
2013-03-21 06:31:00,12.9,11.3,29.63,NNE,22,0.0,2.0,93,0.00,,,0.00,Weather View 32 v70,2013-03-21 10:31:00,
2013-03-21 06:36:00,12.8,11.2,29.63,NNE,22,0.0,2.0,93,0.00,,,0.00,Weather View 32 v70,2013-03-21 10:36:00,
2013-03-21 06:41:00,12.8,11.2,29.63,SSE,157,0.0,2.0,93,0.00,,,0.00,Weather View 32 v70,2013-03-21 10:41:00,
2013-03-21 06:47:00,12.8,11.2,29.63,SSE,157,0.0,2.0,93,0.00,,,0.00,Weather View 32 v70,2013-03-21 10:47:00,
2013-03-21 06:52:00,12.7,11.1,29.63,SSE,157,0.0,2.0,93,0.00,,,0.00,Weather View 32 v70,2013-03-21 10:52:00,
2013-03-21 06:57:00,12.6,11.0,29.63,SSE,157,0.0,2.0,93,0.00,,,0.00,Weather View 32 v70,2013-03-21 10:57:00,
2013-03-21 07:02:00,12.9,11.3,29.63,ESE,112,1.0,2.0,93,0.00,,,0.00,Weather View 32 v70,2013-03-21 11:02:00,
2013-03-21 07:07:00,13.3,11.7,29.63,ESE,112,1.0,2.0,93,0.00,,,0.00,Weather View 32 v70,2013-03-21 11:07:00,
2013-03-21 07:12:00,13.2,11.6,29.63,ESE,112,0.0,2.0,93,0.00,,,0.00,Weather View 32 v70,2013-03-21 11:12:00,
2013-03-21 07:17:00,13.1,11.5,29.64,ESE,112,0.0,2.0,93,0.00,,,0.00,Weather View 32 v70,2013-03-21 11:17:00,
2013-03-21 07:22:00,12.9,11.3,29.63,ESE,112,0.0,2.0,93,0.00,,,0.00,Weather View 32 v70,2013-03-21 11:22:00,
2013-03-21 07:27:00,12.6,11.0,29.63,ESE,112,1.0,2.0,93,0.00,,,0.00,Weather View 32 v70,2013-03-21 11:27:00,
2013-03-21 07:32:00,12.9,11.3,29.63,ESE,112,1.0,2.0,93,0.00,,,0.00,Weather View 32 v70,2013-03-21 11:32:00,
2013-03-21 07:37:00,13.5,11.9,29.64,ESE,112,0.0,2.0,93,0.00,,,0.00,Weather View 32 v70,2013-03-21 11:37:00,
2013-03-21 07:42:00,13.9,12.3,29.64,East,90,0.0,2.0,93,0.00,,,0.00,Weather View 32 v70,2013-03-21 11:42:00,
2013-03-21 07:47:00,14.7,13.0,29.65,East,90,0.0,2.0,93,0.00,,,0.00,Weather View 32 v70,2013-03-21 11:47:00,
2013-03-21 07:52:00,15.6,13.9,29.65,South,180,0.0,2.0,93,0.00,,,0.00,Weather View 32 v70,2013-03-21 11:52:00,
2013-03-21 07:57:00,16.7,15.0,29.66,West,270,0.0,2.0,93,0.00,,,0.00,Weather View 32 v70,2013-03-21 11:57:00,
2013-03-21 08:02:00,17.1,15.4,29.65,NNW,337,0.0,2.0,93,0.00,,,0.00,Weather View 32 v70,2013-03-21 12:02:00,
2013-03-21 08:08:00,17.8,16.1,29.65,NNW,337,0.0,3.0,93,0.00,,,0.00,Weather View 32 v70,2013-03-21 12:08:00,
2013-03-21 08:13:00,18.6,16.9,29.65,WNW,292,1.0,3.0,93,0.00,,,0.00,Weather View 32 v70,2013-03-21 12:13:00,
2013-03-21 08:18:00,19.4,17.7,29.66,SSW,202,0.0,3.0,93,0.00,,,0.00,Weather View 32 v70,2013-03-21 12:18:00,
2013-03-21 08:23:00,20.2,18.5,29.66,NNE,22,0.0,3.0,93,0.00,,,0.00,Weather View 32 v70,2013-03-21 12:23:00,
2013-03-21 08:28:00,20.9,19.2,29.66,ENE,67,1.0,3.0,93,0.00,,,0.00,Weather View 32 v70,2013-03-21 12:28:00,
2013-03-21 08:33:00,21.8,20.1,29.66,WSW,247,0.0,3.0,93,0.00,,,0.00,Weather View 32 v70,2013-03-21 12:33:00,
2013-03-21 08:38:00,22.0,20.3,29.66,NNE,22,0.0,4.0,93,0.00,,,0.00,Weather View 32 v70,2013-03-21 12:38:00,
2013-03-21 08:43:00,22.3,20.6,29.66,WNW,292,0.0,5.0,93,0.00,,,0.00,Weather View 32 v70,2013-03-21 12:43:00,
2013-03-21 08:48:00,22.4,19.9,29.66,WNW,292,1.0,6.0,90,0.00,,,0.00,Weather View 32 v70,2013-03-21 12:48:00,
2013-03-21 08:53:00,22.8,21.1,29.66,NW,315,0.0,6.0,93,0.00,,,0.00,Weather View 32 v70,2013-03-21 12:53:00,
2013-03-21 08:58:00,23.0,21.3,29.66,West,270,2.0,6.0,93,0.00,,,0.00,Weather View 32 v70,2013-03-21 12:58:00,
2013-03-21 09:03:00,23.4,20.4,29.66,WSW,247,2.0,6.0,88,0.00,,,0.00,Weather View 32 v70,2013-03-21 13:03:00,
2013-03-21 09:08:00,23.9,22.2,29.66,WSW,247,1.0,6.0,93,0.00,,,0.00,Weather View 32 v70,2013-03-21 13:08:00,
2013-03-21 09:13:00,23.8,21.6,29.66,West,270,2.0,6.0,91,0.01,,,0.01,Weather View 32 v70,2013-03-21 13:13:00,
2013-03-21 09:18:00,23.5,21.8,29.66,WSW,247,2.0,6.0,93,0.01,,,0.01,Weather View 32 v70,2013-03-21 13:18:00,
2013-03-21 09:23:00,23.5,19.7,29.65,West,270,2.0,7.0,85,0.01,,,0.01,Weather View 32 v70,2013-03-21 13:23:00,
2013-03-21 09:28:00,23.6,19.5,29.65,SSW,202,1.0,7.0,84,0.01,,,0.01,Weather View 32 v70,2013-03-21 13:28:00,
2013-03-21 09:33:00,23.5,20.7,29.65,West,270,0.0,7.0,89,0.01,,,0.01,Weather View 32 v70,2013-03-21 13:33:00,
2013-03-21 09:38:00,23.4,20.6,29.65,NW,315,0.0,8.0,89,0.01,,,0.01,Weather View 32 v70,2013-03-21 13:38:00,
2013-03-21 09:43:00,23.8,20.8,29.65,WNW,292,2.0,8.0,88,0.01,,,0.01,Weather View 32 v70,2013-03-21 13:43:00,
2013-03-21 09:48:00,24.0,20.7,29.65,WNW,292,4.0,8.0,87,0.01,,,0.01,Weather View 32 v70,2013-03-21 13:48:00,
2013-03-21 09:53:00,24.0,17.8,29.65,WNW,292,3.0,8.0,77,0.01,,,0.01,Weather View 32 v70,2013-03-21 13:53:00,
2013-03-21 09:58:00,24.3,19.9,29.65,SW,225,0.0,8.0,83,0.01,,,0.01,Weather View 32 v70,2013-03-21 13:58:00,
2013-03-21 10:03:00,24.6,16.9,29.65,SSW,202,0.0,8.0,72,0.01,,,0.01,Weather View 32 v70,2013-03-21 14:03:00,
2013-03-21 10:08:00,24.7,19.4,29.65,West,270,1.0,8.0,80,0.01,,,0.01,Weather View 32 v70,2013-03-21 14:08:00,
2013-03-21 10:13:00,24.7,16.0,29.65,WNW,292,2.0,8.0,69,0.00,,,0.01,Weather View 32 v70,2013-03-21 14:13:00,
2013-03-21 10:18:00,24.9,18.1,29.64,WNW,292,3.0,8.0,75,0.00,,,0.01,Weather View 32 v70,2013-03-21 14:18:00,
2013-03-21 10:23:00,24.7,16.6,29.64,WNW,292,3.0,8.0,71,0.00,,,0.01,Weather View 32 v70,2013-03-21 14:23:00,
2013-03-21 10:28:00,24.9,16.2,29.63,WNW,292,4.0,8.0,69,0.00,,,0.01,Weather View 32 v70,2013-03-21 14:28:00,
2013-03-21 10:33:00,24.9,17.2,29.63,SSW,202,2.0,8.0,72,0.00,,,0.01,Weather View 32 v70,2013-03-21 14:33:00,
2013-03-21 10:38:00,24.9,17.2,29.63,WNW,292,1.0,7.0,72,0.00,,,0.01,Weather View 32 v70,2013-03-21 14:38:00,
2013-03-21 10:43:00,25.5,17.1,29.63,West,270,3.0,7.0,70,0.00,,,0.01,Weather View 32 v70,2013-03-21 14:43:00,
2013-03-21 10:48:00,25.6,17.2,29.63,WNW,292,5.0,7.0,70,0.00,,,0.01,Weather View 32 v70,2013-03-21 14:48:00,
2013-03-21 10:53:00,25.0,15.9,29.63,WNW,292,2.0,7.0,68,0.00,,,0.01,Weather View 32 v70,2013-03-21 14:53:00,
2013-03-21 10:58:00,25.7,15.6,29.63,East,90,2.0,9.0,65,0.00,,,0.01,Weather View 32 v70,2013-03-21 14:58:00,
2013-03-21 11:05:00,25.7,15.2,29.63,WNW,292,3.0,9.0,64,0.00,,,0.01,Weather View 32 v70,2013-03-21 15:05:00,
2013-03-21 11:10:00,25.8,15.3,29.63,WNW,292,4.0,9.0,64,0.00,,,0.01,Weather View 32 v70,2013-03-21 15:10:00,
2013-03-21 11:20:00,26.5,14.5,29.63,West,270,1.0,9.0,60,0.00,,,0.01,Weather View 32 v70,2013-03-21 15:20:00,
2013-03-21 11:25:00,27.8,15.3,29.62,West,270,2.0,9.0,59,0.00,,,0.01,Weather View 32 v70,2013-03-21 15:25:00,
2013-03-21 11:30:00,27.3,13.3,29.62,WNW,292,4.0,9.0,55,0.00,,,0.01,Weather View 32 v70,2013-03-21 15:30:00,
2013-03-21 11:35:00,27.6,14.4,29.62,West,270,4.0,9.0,57,0.00,,,0.01,Weather View 32 v70,2013-03-21 15:35:00,
2013-03-21 11:40:00,28.3,14.6,29.62,WNW,292,3.0,9.0,56,0.00,,,0.01,Weather View 32 v70,2013-03-21 15:40:00,
2013-03-21 11:45:00,29.6,15.4,29.62,ENE,67,2.0,9.0,55,0.00,,,0.01,Weather View 32 v70,2013-03-21 15:45:00,
2013-03-21 11:50:00,30.2,16.0,29.62,WSW,247,0.0,9.0,55,0.00,,,0.01,Weather View 32 v70,2013-03-21 15:50:00,
2013-03-21 11:55:00,30.8,15.7,29.62,SW,225,1.0,8.0,53,0.00,,,0.01,Weather View 32 v70,2013-03-21 15:55:00,
2013-03-21 12:00:00,29.9,15.7,29.62,West,270,2.0,7.0,55,0.00,,,0.01,Weather View 32 v70,2013-03-21 16:00:00,
2013-03-21 12:05:00,31.2,17.7,29.62,NW,315,2.0,7.0,57,0.00,,,0.01,Weather View 32 v70,2013-03-21 16:05:00,
2013-03-21 12:10:00,32.2,18.7,29.62,West,270,0.0,7.0,57,0.00,,,0.01,Weather View 32 v70,2013-03-21 16:10:00,
2013-03-21 12:15:00,31.6,16.8,29.62,WNW,292,2.0,7.0,54,0.00,,,0.01,Weather View 32 v70,2013-03-21 16:15:00,
2013-03-21 12:20:00,31.9,16.7,29.62,WNW,292,4.0,7.0,53,0.01,,,0.02,Weather View 32 v70,2013-03-21 16:20:00,
2013-03-21 12:25:00,31.4,16.7,29.62,NE,45,0.0,7.0,54,0.01,,,0.02,Weather View 32 v70,2013-03-21 16:25:00,
2013-03-21 12:30:00,31.6,16.0,29.62,NNW,337,1.0,7.0,52,0.01,,,0.02,Weather View 32 v70,2013-03-21 16:30:00,
2013-03-21 12:35:00,30.9,15.3,29.61,NNW,337,2.0,7.0,52,0.01,,,0.02,Weather View 32 v70,2013-03-21 16:35:00,
2013-03-21 12:40:00,30.9,17.9,29.61,West,270,3.0,6.0,58,0.01,,,0.02,Weather View 32 v70,2013-03-21 16:40:00,
2013-03-21 12:45:00,30.7,15.6,29.61,East,90,5.0,6.0,53,0.01,,,0.02,Weather View 32 v70,2013-03-21 16:45:00,
2013-03-21 12:50:00,30.3,15.2,29.60,SSW,202,0.0,6.0,53,0.01,,,0.02,Weather View 32 v70,2013-03-21 16:50:00,
2013-03-21 12:55:00,30.9,14.0,29.60,ESE,112,1.0,6.0,49,0.01,,,0.02,Weather View 32 v70,2013-03-21 16:55:00,
2013-03-21 13:00:00,30.9,13.0,29.59,ENE,67,2.0,6.0,47,0.01,,,0.02,Weather View 32 v70,2013-03-21 17:00:00,
2013-03-21 13:05:00,30.9,14.4,29.59,NNW,337,1.0,6.0,50,0.01,,,0.02,Weather View 32 v70,2013-03-21 17:05:00,
2013-03-21 13:10:00,30.9,15.3,29.59,West,270,3.0,6.0,52,0.01,,,0.02,Weather View 32 v70,2013-03-21 17:10:00,
2013-03-21 13:15:00,30.4,13.5,29.59,WNW,292,2.0,6.0,49,0.01,,,0.02,Weather View 32 v70,2013-03-21 17:15:00,
2013-03-21 13:20:00,30.4,16.2,29.59,SSW,202,0.0,6.0,55,0.00,,,0.02,Weather View 32 v70,2013-03-21 17:20:00,
2013-03-21 13:25:00,31.3,18.2,29.58,SE,135,1.0,6.0,58,0.01,,,0.03,Weather View 32 v70,2013-03-21 17:25:00,
2013-03-21 13:30:00,31.2,12.8,29.58,SW,225,0.0,6.0,46,0.01,,,0.03,Weather View 32 v70,2013-03-21 17:30:00,
2013-03-21 13:35:00,31.5,15.0,29.58,NNW,337,3.0,6.0,50,0.01,,,0.03,Weather View 32 v70,2013-03-21 17:35:00,
2013-03-21 13:40:00,32.1,14.1,29.58,NW,315,2.0,5.0,47,0.01,,,0.03,Weather View 32 v70,2013-03-21 17:40:00,
2013-03-21 13:45:00,31.7,13.3,29.58,WNW,292,2.0,5.0,46,0.01,,,0.03,Weather View 32 v70,2013-03-21 17:45:00,
2013-03-21 13:50:00,32.5,15.4,29.58,NW,315,2.0,5.0,49,0.01,,,0.03,Weather View 32 v70,2013-03-21 17:50:00,
2013-03-21 13:55:00,32.9,14.4,29.57,WNW,292,1.0,5.0,46,0.01,,,0.03,Weather View 32 v70,2013-03-21 17:55:00,
2013-03-21 14:00:00,33.7,17.5,29.57,NNW,337,4.0,5.0,51,0.01,,,0.03,Weather View 32 v70,2013-03-21 18:00:00,
2013-03-21 14:05:00,34.0,15.4,29.57,North,360,1.0,5.0,46,0.01,,,0.03,Weather View 32 v70,2013-03-21 18:05:00,
2013-03-21 14:10:00,34.9,20.8,29.57,North,360,0.0,5.0,56,0.01,,,0.03,Weather View 32 v70,2013-03-21 18:10:00,
2013-03-21 14:15:00,34.1,18.3,29.56,NNW,337,1.0,5.0,52,0.01,,,0.03,Weather View 32 v70,2013-03-21 18:15:00,
2013-03-21 14:20:00,34.1,17.8,29.56,NNW,337,3.0,5.0,51,0.01,,,0.03,Weather View 32 v70,2013-03-21 18:20:00,
2013-03-21 14:25:00,33.5,16.4,29.56,NW,315,1.0,5.0,49,0.00,,,0.03,Weather View 32 v70,2013-03-21 18:25:00,
2013-03-21 14:30:00,33.0,13.4,29.56,West,270,0.0,5.0,44,0.00,,,0.03,Weather View 32 v70,2013-03-21 18:30:00,
2013-03-21 14:35:00,33.7,15.6,29.55,NW,315,2.0,5.0,47,0.00,,,0.03,Weather View 32 v70,2013-03-21 18:35:00,
2013-03-21 14:40:00,34.3,17.6,29.55,NNE,22,1.0,5.0,50,0.01,,,0.04,Weather View 32 v70,2013-03-21 18:40:00,
2013-03-21 14:45:00,33.9,17.7,29.55,NNW,337,2.0,5.0,51,0.01,,,0.04,Weather View 32 v70,2013-03-21 18:45:00,
2013-03-21 14:50:00,34.1,18.3,29.54,NNE,22,1.0,5.0,52,0.02,,,0.05,Weather View 32 v70,2013-03-21 18:50:00,
2013-03-21 14:55:00,34.6,15.4,29.54,NNE,22,0.0,5.0,45,0.02,,,0.05,Weather View 32 v70,2013-03-21 18:55:00,
2013-03-21 15:00:00,34.7,20.2,29.54,SSW,202,0.0,5.0,55,0.02,,,0.05,Weather View 32 v70,2013-03-21 19:00:00,
2013-03-21 15:05:00,33.9,15.8,29.54,SSE,157,1.0,5.0,47,0.03,,,0.06,Weather View 32 v70,2013-03-21 19:05:00,
2013-03-21 15:10:00,33.8,15.7,29.54,North,360,1.0,5.0,47,0.03,,,0.06,Weather View 32 v70,2013-03-21 19:10:00,
2013-03-21 15:15:00,34.8,22.3,29.53,NNW,337,0.0,4.0,60,0.04,,,0.07,Weather View 32 v70,2013-03-21 19:15:00,
2013-03-21 15:20:00,34.4,23.5,29.53,West,270,1.0,4.0,64,0.04,,,0.07,Weather View 32 v70,2013-03-21 19:20:00,
2013-03-21 15:25:00,34.7,22.6,29.53,NW,315,1.0,4.0,61,0.04,,,0.07,Weather View 32 v70,2013-03-21 19:25:00,
2013-03-21 15:30:00,35.3,24.7,29.52,North,360,0.0,4.0,65,0.05,,,0.08,Weather View 32 v70,2013-03-21 19:30:00,
2013-03-21 15:35:00,35.7,15.4,29.52,North,360,0.0,4.0,43,0.05,,,0.08,Weather View 32 v70,2013-03-21 19:35:00,
2013-03-21 15:40:00,34.4,24.2,29.52,West,270,2.0,4.0,66,0.04,,,0.08,Weather View 32 v70,2013-03-21 19:40:00,
2013-03-21 15:45:00,34.2,24.0,29.52,West,270,2.0,4.0,66,0.05,,,0.09,Weather View 32 v70,2013-03-21 19:45:00,
2013-03-21 15:50:00,34.2,24.0,29.52,NW,315,2.0,4.0,66,0.04,,,0.09,Weather View 32 v70,2013-03-21 19:50:00,
2013-03-21 15:55:00,33.4,14.8,29.52,NE,45,2.0,4.0,46,0.04,,,0.09,Weather View 32 v70,2013-03-21 19:55:00,
2013-03-21 16:00:00,33.6,22.0,29.52,SE,135,2.0,4.0,62,0.04,,,0.10,Weather View 32 v70,2013-03-21 20:00:00,
2013-03-21 16:05:00,33.7,22.4,29.52,SSE,157,2.0,4.0,63,0.04,,,0.10,Weather View 32 v70,2013-03-21 20:05:00,
2013-03-21 16:10:00,33.6,21.6,29.51,SW,225,0.0,4.0,61,0.04,,,0.10,Weather View 32 v70,2013-03-21 20:10:00,
2013-03-21 16:15:00,33.7,23.5,29.51,North,360,1.0,4.0,66,0.03,,,0.10,Weather View 32 v70,2013-03-21 20:15:00,
2013-03-21 16:20:00,33.6,23.1,29.51,WNW,292,1.0,4.0,65,0.03,,,0.10,Weather View 32 v70,2013-03-21 20:20:00,
2013-03-21 16:25:00,33.6,21.6,29.51,WNW,292,1.0,4.0,61,0.03,,,0.10,Weather View 32 v70,2013-03-21 20:25:00,
2013-03-21 16:30:00,33.5,21.1,29.51,WNW,292,2.0,4.0,60,0.03,,,0.11,Weather View 32 v70,2013-03-21 20:30:00,
2013-03-21 16:35:00,33.7,21.3,29.51,NNW,337,1.0,4.0,60,0.03,,,0.11,Weather View 32 v70,2013-03-21 20:35:00,
2013-03-21 16:40:00,33.8,22.1,29.51,SSW,202,0.0,4.0,62,0.03,,,0.11,Weather View 32 v70,2013-03-21 20:40:00,
2013-03-21 16:45:00,33.8,23.3,29.50,West,270,0.0,4.0,65,0.02,,,0.11,Weather View 32 v70,2013-03-21 20:45:00,
2013-03-21 16:50:00,33.2,20.8,29.50,WNW,292,2.0,4.0,60,0.02,,,0.11,Weather View 32 v70,2013-03-21 20:50:00,
2013-03-21 16:55:00,32.9,21.3,29.50,WNW,292,1.0,4.0,62,0.02,,,0.11,Weather View 32 v70,2013-03-21 20:55:00,
2013-03-21 17:00:00,33.0,19.8,29.50,SW,225,2.0,4.0,58,0.02,,,0.11,Weather View 32 v70,2013-03-21 21:00:00,
2013-03-21 17:05:00,33.0,20.2,29.50,NNE,22,0.0,4.0,59,0.01,,,0.11,Weather View 32 v70,2013-03-21 21:05:00,
2013-03-21 17:10:00,32.9,18.9,29.50,SSW,202,0.0,4.0,56,0.01,,,0.11,Weather View 32 v70,2013-03-21 21:10:00,
2013-03-21 17:15:00,32.9,20.5,29.50,West,270,2.0,4.0,60,0.01,,,0.11,Weather View 32 v70,2013-03-21 21:15:00,
2013-03-21 17:20:00,32.8,20.4,29.50,NNW,337,6.0,6.0,60,0.01,,,0.11,Weather View 32 v70,2013-03-21 21:20:00,
2013-03-21 17:25:00,32.7,21.5,29.50,WSW,247,2.0,6.0,63,0.01,,,0.11,Weather View 32 v70,2013-03-21 21:25:00,
2013-03-21 17:30:00,32.5,22.4,29.50,NW,315,1.0,6.0,66,0.01,,,0.12,Weather View 32 v70,2013-03-21 21:30:00,
2013-03-21 17:35:00,32.3,20.0,29.50,NW,315,2.0,6.0,60,0.01,,,0.12,Weather View 32 v70,2013-03-21 21:35:00,
2013-03-21 17:40:00,32.3,20.0,29.50,WNW,292,0.0,6.0,60,0.01,,,0.12,Weather View 32 v70,2013-03-21 21:40:00,
2013-03-21 17:45:00,32.2,19.9,29.50,WNW,292,0.0,6.0,60,0.01,,,0.12,Weather View 32 v70,2013-03-21 21:45:00,
2013-03-21 17:50:00,31.9,18.8,29.50,NW,315,0.0,6.0,58,0.01,,,0.12,Weather View 32 v70,2013-03-21 21:50:00,
2013-03-21 17:55:00,31.7,19.0,29.50,WNW,292,2.0,6.0,59,0.01,,,0.12,Weather View 32 v70,2013-03-21 21:55:00,
2013-03-21 18:00:00,31.6,17.3,29.50,WNW,292,2.0,6.0,55,0.01,,,0.12,Weather View 32 v70,2013-03-21 22:00:00,
2013-03-21 18:06:00,31.4,17.9,29.50,SSE,157,2.0,6.0,57,0.01,,,0.12,Weather View 32 v70,2013-03-21 22:06:00,
2013-03-21 18:11:00,31.2,18.9,29.50,WSW,247,0.0,6.0,60,-0.10,,,0.12,Weather View 32 v70,2013-03-21 22:11:00,
2013-03-21 18:16:00,30.9,19.0,29.50,WSW,247,0.0,6.0,61,0.01,,,0.12,Weather View 32 v70,2013-03-21 22:16:00,
2013-03-21 18:21:00,30.6,17.2,29.50,SSE,157,0.0,6.0,57,0.01,,,0.12,Weather View 32 v70,2013-03-21 22:21:00,
2013-03-21 18:26:00,30.7,18.1,29.50,WSW,247,0.0,3.0,59,0.01,,,0.12,Weather View 32 v70,2013-03-21 22:26:00,
2013-03-21 18:31:00,30.6,16.3,29.51,WSW,247,0.0,3.0,55,0.00,,,0.12,Weather View 32 v70,2013-03-21 22:31:00,
2013-03-21 18:36:00,30.4,17.0,29.51,WNW,292,2.0,3.0,57,0.00,,,0.12,Weather View 32 v70,2013-03-21 22:36:00,
2013-03-21 18:41:00,30.5,16.2,29.51,West,270,0.0,3.0,55,0.00,,,0.12,Weather View 32 v70,2013-03-21 22:41:00,
2013-03-21 18:46:00,30.2,15.5,29.51,West,270,1.0,3.0,54,0.00,,,0.12,Weather View 32 v70,2013-03-21 22:46:00,
2013-03-21 18:51:00,29.8,16.4,29.51,SW,225,0.0,4.0,57,0.00,,,0.12,Weather View 32 v70,2013-03-21 22:51:00,
2013-03-21 18:56:00,29.6,14.6,29.51,WNW,292,1.0,6.0,53,0.00,,,0.12,Weather View 32 v70,2013-03-21 22:56:00,
2013-03-21 19:01:00,29.4,15.6,29.51,South,180,0.0,6.0,56,0.00,,,0.12,Weather View 32 v70,2013-03-21 23:01:00,
2013-03-21 19:06:00,28.9,13.5,29.50,SSW,202,1.0,6.0,52,0.00,,,0.12,Weather View 32 v70,2013-03-21 23:06:00,
2013-03-21 19:11:00,28.4,14.3,29.50,SSW,202,1.0,6.0,55,0.00,,,0.12,Weather View 32 v70,2013-03-21 23:11:00,
2013-03-21 19:17:00,27.9,11.2,29.50,WSW,247,2.0,6.0,49,0.00,,,0.12,Weather View 32 v70,2013-03-21 23:17:00,
2013-03-21 19:22:00,27.9,12.1,29.50,SW,225,1.0,6.0,51,0.00,,,0.12,Weather View 32 v70,2013-03-21 23:22:00,
2013-03-21 19:27:00,27.5,11.3,29.50,South,180,1.0,6.0,50,0.00,,,0.12,Weather View 32 v70,2013-03-21 23:27:00,
2013-03-21 19:32:00,26.9,12.0,29.50,WNW,292,2.0,6.0,53,0.00,,,0.12,Weather View 32 v70,2013-03-21 23:32:00,
2013-03-21 19:37:00,27.4,11.2,29.50,WNW,292,1.0,7.0,50,0.00,,,0.12,Weather View 32 v70,2013-03-21 23:37:00,
2013-03-21 19:42:00,27.7,13.2,29.51,West,270,3.0,7.0,54,0.00,,,0.12,Weather View 32 v70,2013-03-21 23:42:00,
2013-03-21 19:47:00,27.9,14.2,29.51,West,270,0.0,7.0,56,0.00,,,0.12,Weather View 32 v70,2013-03-21 23:47:00,
2013-03-21 19:52:00,27.9,13.0,29.51,WNW,292,4.0,8.0,53,0.00,,,0.12,Weather View 32 v70,2013-03-21 23:52:00,
2013-03-21 19:57:00,27.9,12.5,29.51,West,270,2.0,8.0,52,0.00,,,0.12,Weather View 32 v70,2013-03-21 23:57:00,
2013-03-21 20:02:00,27.7,13.6,29.51,WNW,292,1.0,8.0,55,0.00,,,0.12,Weather View 32 v70,2013-03-22 00:02:00,
2013-03-21 20:07:00,27.6,12.7,29.51,WNW,292,2.0,9.0,53,0.00,,,0.12,Weather View 32 v70,2013-03-22 00:07:00,
2013-03-21 20:12:00,27.4,12.9,29.51,West,270,1.0,9.0,54,0.00,,,0.12,Weather View 32 v70,2013-03-22 00:12:00,
2013-03-21 20:17:00,27.3,12.8,29.51,WSW,247,2.0,9.0,54,0.00,,,0.12,Weather View 32 v70,2013-03-22 00:17:00,
2013-03-21 20:22:00,26.8,12.8,29.52,WNW,292,3.0,9.0,55,0.00,,,0.12,Weather View 32 v70,2013-03-22 00:22:00,
2013-03-21 20:27:00,26.8,12.4,29.52,West,270,4.0,9.0,54,0.00,,,0.12,Weather View 32 v70,2013-03-22 00:27:00,
2013-03-21 20:32:00,26.8,11.9,29.52,WSW,247,2.0,9.0,53,0.00,,,0.12,Weather View 32 v70,2013-03-22 00:32:00,
2013-03-21 20:37:00,26.9,11.6,29.52,SSW,202,3.0,11.0,52,0.00,,,0.12,Weather View 32 v70,2013-03-22 00:37:00,
2013-03-21 20:42:00,26.8,11.9,29.52,West,270,2.0,11.0,53,0.00,,,0.12,Weather View 32 v70,2013-03-22 00:42:00,
2013-03-21 20:47:00,26.7,12.7,29.52,NNW,337,3.0,11.0,55,0.00,,,0.12,Weather View 32 v70,2013-03-22 00:47:00,
2013-03-21 20:52:00,26.5,12.5,29.52,WNW,292,2.0,11.0,55,0.00,,,0.12,Weather View 32 v70,2013-03-22 00:52:00,
2013-03-21 20:57:00,26.6,12.2,29.52,WNW,292,5.0,11.0,54,0.00,,,0.12,Weather View 32 v70,2013-03-22 00:57:00,
2013-03-21 21:02:00,26.7,11.4,29.52,West,270,2.0,11.0,52,0.00,,,0.12,Weather View 32 v70,2013-03-22 01:02:00,
2013-03-21 21:07:00,26.6,11.8,29.52,WSW,247,2.0,11.0,53,0.00,,,0.12,Weather View 32 v70,2013-03-22 01:07:00,
2013-03-21 21:12:00,26.4,12.0,29.52,WNW,292,5.0,11.0,54,0.00,,,0.12,Weather View 32 v70,2013-03-22 01:12:00,
2013-03-21 21:17:00,26.4,12.0,29.52,WNW,292,4.0,11.0,54,0.00,,,0.12,Weather View 32 v70,2013-03-22 01:17:00,
2013-03-21 21:22:00,26.2,11.8,29.53,SSW,202,2.0,11.0,54,0.00,,,0.12,Weather View 32 v70,2013-03-22 01:22:00,
2013-03-21 21:27:00,26.2,11.4,29.53,WNW,292,2.0,14.0,53,0.00,,,0.12,Weather View 32 v70,2013-03-22 01:27:00,
2013-03-21 21:32:00,26.2,11.4,29.53,WNW,292,7.0,14.0,53,0.00,,,0.12,Weather View 32 v70,2013-03-22 01:32:00,
2013-03-21 21:37:00,26.1,11.3,29.53,WNW,292,2.0,14.0,53,0.00,,,0.12,Weather View 32 v70,2013-03-22 01:37:00,
2013-03-21 21:42:00,25.9,11.5,29.53,SSW,202,2.0,14.0,54,0.00,,,0.12,Weather View 32 v70,2013-03-22 01:42:00,
2013-03-21 21:47:00,25.7,12.2,29.53,WNW,292,4.0,14.0,56,0.00,,,0.12,Weather View 32 v70,2013-03-22 01:47:00,
2013-03-21 21:52:00,25.5,13.2,29.53,WNW,292,2.0,14.0,59,0.00,,,0.12,Weather View 32 v70,2013-03-22 01:52:00,
2013-03-21 21:57:00,25.5,13.9,29.52,WSW,247,2.0,14.0,61,0.00,,,0.12,Weather View 32 v70,2013-03-22 01:57:00,
2013-03-21 22:03:00,25.3,13.4,29.52,West,270,9.0,14.0,60,0.00,,,0.12,Weather View 32 v70,2013-03-22 02:03:00,
2013-03-21 22:08:00,25.2,14.4,29.52,SE,135,2.0,14.0,63,0.00,,,0.12,Weather View 32 v70,2013-03-22 02:08:00,
2013-03-21 22:13:00,25.3,14.1,29.52,WNW,292,2.0,14.0,62,0.00,,,0.12,Weather View 32 v70,2013-03-22 02:13:00,
2013-03-21 22:18:00,25.3,14.1,29.52,WNW,292,7.0,14.0,62,0.00,,,0.12,Weather View 32 v70,2013-03-22 02:18:00,
2013-03-21 22:23:00,25.2,15.1,29.52,WNW,292,1.0,14.0,65,0.00,,,0.12,Weather View 32 v70,2013-03-22 02:23:00,
2013-03-21 22:28:00,25.1,15.0,29.52,WNW,292,1.0,12.0,65,0.00,,,0.12,Weather View 32 v70,2013-03-22 02:28:00,
2013-03-21 22:33:00,24.9,14.1,29.52,WNW,292,2.0,12.0,63,0.00,,,0.12,Weather View 32 v70,2013-03-22 02:33:00,
2013-03-21 22:38:00,24.8,14.0,29.52,WNW,292,2.0,12.0,63,0.00,,,0.12,Weather View 32 v70,2013-03-22 02:38:00,
2013-03-21 22:43:00,24.7,12.8,29.51,West,270,1.0,9.0,60,0.00,,,0.12,Weather View 32 v70,2013-03-22 02:43:00,
2013-03-21 22:50:00,24.6,13.8,29.52,WNW,292,2.0,9.0,63,0.00,,,0.12,Weather View 32 v70,2013-03-22 02:50:00,
2013-03-21 23:00:00,24.6,14.5,29.51,WSW,247,2.0,9.0,65,0.00,,,0.12,Weather View 32 v70,2013-03-22 03:00:00,
2013-03-21 23:05:00,24.5,16.4,29.51,West,270,4.0,9.0,71,0.00,,,0.12,Weather View 32 v70,2013-03-22 03:05:00,
2013-03-21 23:10:00,24.4,18.2,29.51,SW,225,1.0,9.0,77,0.00,,,0.12,Weather View 32 v70,2013-03-22 03:10:00,
2013-03-21 23:15:00,24.4,20.0,29.51,WSW,247,4.0,12.0,83,0.00,,,0.12,Weather View 32 v70,2013-03-22 03:15:00,
2013-03-21 23:20:00,24.4,18.2,29.52,West,270,1.0,12.0,77,0.00,,,0.12,Weather View 32 v70,2013-03-22 03:20:00,
2013-03-21 23:25:00,24.3,19.6,29.52,WSW,247,3.0,12.0,82,0.00,,,0.12,Weather View 32 v70,2013-03-22 03:25:00,
2013-03-21 23:30:00,24.3,18.1,29.51,West,270,2.0,12.0,77,0.00,,,0.12,Weather View 32 v70,2013-03-22 03:30:00,
2013-03-21 23:35:00,24.1,22.1,29.51,WNW,292,1.0,12.0,92,0.00,,,0.12,Weather View 32 v70,2013-03-22 03:35:00,
2013-03-21 23:40:00,23.9,20.3,29.51,WNW,292,10.0,12.0,86,0.00,,,0.12,Weather View 32 v70,2013-03-22 03:40:00,
2013-03-21 23:45:00,23.8,21.6,29.51,WNW,292,4.0,12.0,91,0.00,,,0.12,Weather View 32 v70,2013-03-22 03:45:00,
2013-03-21 23:50:00,23.8,18.8,29.52,WSW,247,2.0,12.0,81,0.00,,,0.12,Weather View 32 v70,2013-03-22 03:50:00,
2013-03-21 23:55:00,23.7,19.3,29.52,West,270,1.0,12.0,83,0.00,,,0.12,Weather View 32 v70,2013-03-22 03:55:00,